| time (UTC) | temp F | wind direction | speed MPH | gust MPH | rain 1hr in | rain 24hr in | rain mn in | humidity % | barometer mb |
| 20260905004003 | 58 | 225 | 2.0 | 4.0 | 0.00 | 0.24 | 0.00 | 88 | 1015.7 |
| 20260905003717 | 58 | 225 | 2.0 | 4.0 | 0.00 | 0.24 | 0.00 | 88 | 1015.6 |
| 20260905003216 | 58 | 226 | 2.0 | 4.0 | 0.00 | 0.24 | 0.00 | 88 | 1015.8 |
| 20260905002503 | 58 | 216 | 2.0 | 4.0 | 0.00 | 0.24 | 0.00 | 88 | 1015.8 |
| 20260905002003 | 58 | 217 | 2.0 | 6.0 | 0.00 | 0.24 | 0.00 | 88 | 1015.7 |
| 20260905001503 | 58 | 226 | 2.0 | 6.0 | 0.00 | 0.24 | 0.00 | 88 | 1015.7 |
| 20260905001003 | 58 | 219 | 2.0 | 5.0 | 0.00 | 0.24 | 0.00 | 88 | 1015.7 |
| 20260905000717 | 58 | 218 | 2.0 | 6.0 | 0.00 | 0.24 | 0.00 | 88 | 1015.6 |
| 20260905000003 | 58 | 226 | 2.0 | 6.0 | 0.00 | 0.24 | 0.00 | 87 | 1015.6 |
| 20260904235503 | 58 | 228 | 2.0 | 7.0 | 0.00 | 0.24 | 0.00 | 87 | 1015.6 |
| 20260904235003 | 58 | 230 | 3.0 | 7.0 | 0.00 | 0.24 | 0.00 | 88 | 1015.6 |
| 20260904234503 | 58 | 231 | 3.0 | 8.0 | 0.00 | 0.24 | 0.00 | 88 | 1015.5 |
| 20260904234003 | 58 | 226 | 2.0 | 8.0 | 0.00 | 0.24 | 0.00 | 88 | 1015.5 |
| 20260904233503 | 58 | 217 | 2.0 | 5.0 | 0.00 | 0.24 | 0.00 | 88 | 1015.4 |
| 20260904233218 | 58 | 212 | 2.0 | 5.0 | 0.00 | 0.24 | 0.00 | 88 | 1015.4 |
| 20260904232503 | 58 | 229 | 2.0 | 8.0 | 0.00 | 0.24 | 0.00 | 87 | 1015.4 |
| 20260904232003 | 58 | 232 | 3.0 | 8.0 | 0.00 | 0.24 | 0.00 | 88 | 1015.4 |
| 20260904231503 | 58 | 224 | 3.0 | 8.0 | 0.00 | 0.24 | 0.00 | 88 | 1015.4 |
| 20260904231003 | 58 | 224 | 2.0 | 7.0 | 0.00 | 0.24 | 0.00 | 87 | 1015.4 |
| 20260904230503 | 58 | 228 | 2.0 | 7.0 | 0.00 | 0.24 | 0.00 | 87 | 1015.3 |
| 20260904230003 | 59 | 227 | 3.0 | 7.0 | 0.00 | 0.24 | 0.00 | 87 | 1015.3 |
| 20260904225503 | 59 | 228 | 3.0 | 8.0 | 0.00 | 0.24 | 0.00 | 87 | 1015.3 |
| 20260904225003 | 59 | 232 | 3.0 | 8.0 | 0.00 | 0.24 | 0.00 | 87 | 1015.3 |
| 20260904224503 | 59 | 229 | 3.0 | 7.0 | 0.00 | 0.24 | 0.00 | 87 | 1015.2 |
| 20260904224003 | 59 | 225 | 3.0 | 9.0 | 0.00 | 0.24 | 0.00 | 87 | 1015.3 |
| 20260904223503 | 59 | 227 | 3.0 | 9.0 | 0.00 | 0.24 | 0.00 | 87 | 1015.2 |
| 20260904223218 | 59 | 225 | 3.0 | 9.0 | 0.00 | 0.24 | 0.00 | 87 | 1015.3 |
| 20260904222503 | 59 | 231 | 3.0 | 9.0 | 0.00 | 0.24 | 0.00 | 86 | 1015.0 |
| 20260904222003 | 60 | 231 | 3.0 | 8.0 | 0.00 | 0.24 | 0.00 | 86 | 1015.0 |
| 20260904221503 | 60 | 231 | 3.0 | 9.0 | 0.00 | 0.24 | 0.00 | 87 | 1014.9 |
| 20260904221003 | 60 | 235 | 4.0 | 9.0 | 0.00 | 0.24 | 0.00 | 86 | 1015.0 |
| 20260904220503 | 60 | 232 | 4.0 | 8.0 | 0.00 | 0.24 | 0.00 | 86 | 1014.9 |
| 20260904220005 | 60 | 232 | 4.0 | 8.0 | 0.00 | 0.24 | 0.00 | 87 | 1014.7 |
| 20260904215503 | 60 | 231 | 3.0 | 8.0 | 0.00 | 0.24 | 0.24 | 87 | 1014.8 |
| 20260904215217 | 60 | 231 | 3.0 | 5.0 | 0.00 | 0.24 | 0.24 | 86 | 1014.7 |
| 20260904214503 | 60 | 234 | 3.0 | 6.0 | 0.00 | 0.24 | 0.24 | 86 | 1014.7 |
| 20260904214003 | 60 | 232 | 3.0 | 7.0 | 0.00 | 0.24 | 0.24 | 86 | 1014.7 |
| 20260904213503 | 60 | 234 | 3.0 | 9.0 | 0.00 | 0.24 | 0.24 | 86 | 1014.6 |
| 20260904213217 | 60 | 238 | 3.0 | 9.0 | 0.00 | 0.24 | 0.24 | 86 | 1014.7 |
| 20260904212503 | 61 | 235 | 3.0 | 7.0 | 0.00 | 0.24 | 0.24 | 86 | 1014.6 |
| 20260904212003 | 61 | 234 | 3.0 | 7.0 | 0.00 | 0.24 | 0.24 | 86 | 1014.5 |
| 20260904211503 | 61 | 236 | 2.0 | 6.0 | 0.00 | 0.24 | 0.24 | 86 | 1014.6 |
| 20260904211003 | 61 | 234 | 2.0 | 6.0 | 0.00 | 0.24 | 0.24 | 86 | 1014.6 |
| 20260904210503 | 61 | 235 | 2.0 | 6.0 | 0.00 | 0.24 | 0.24 | 86 | 1014.7 |
| 20260904210003 | 61 | 244 | 2.0 | 6.0 | 0.00 | 0.24 | 0.24 | 87 | 1014.6 |
| 20260904205503 | 61 | 247 | 3.0 | 6.0 | 0.00 | 0.24 | 0.24 | 87 | 1014.7 |
| 20260904205003 | 61 | 241 | 3.0 | 7.0 | 0.00 | 0.24 | 0.24 | 87 | 1014.6 |
| 20260904204503 | 61 | 233 | 3.0 | 7.0 | 0.00 | 0.24 | 0.24 | 88 | 1014.5 |
| 20260904204003 | 62 | 227 | 2.0 | 6.0 | 0.00 | 0.24 | 0.24 | 88 | 1014.4 |
| 20260904203503 | 62 | 227 | 3.0 | 5.0 | 0.00 | 0.24 | 0.24 | 88 | 1014.6 |
| 20260904203217 | 62 | 230 | 3.0 | 5.0 | 0.00 | 0.24 | 0.24 | 88 | 1014.6 |
| 20260904202503 | 62 | 228 | 2.0 | 6.0 | 0.00 | 0.24 | 0.24 | 88 | 1014.4 |
| 20260904202003 | 62 | 226 | 2.0 | 6.0 | 0.00 | 0.24 | 0.24 | 88 | 1014.3 |
| 20260904201718 | 62 | 224 | 2.0 | 5.0 | 0.00 | 0.24 | 0.24 | 87 | 1014.3 |
| 20260904201217 | 63 | 227 | 2.0 | 7.0 | 0.00 | 0.24 | 0.24 | 87 | 1014.2 |
| 20260904200503 | 63 | 246 | 2.0 | 7.0 | 0.00 | 0.24 | 0.24 | 87 | 1014.3 |
| 20260904200003 | 63 | 252 | 2.0 | 7.0 | 0.00 | 0.24 | 0.24 | 86 | 1014.2 |
| 20260904195503 | 63 | 253 | 2.0 | 7.0 | 0.00 | 0.24 | 0.24 | 86 | 1014.2 |
| 20260904195003 | 63 | 260 | 3.0 | 10.0 | 0.00 | 0.24 | 0.24 | 86 | 1014.1 |
| 20260904194503 | 63 | 263 | 3.0 | 10.0 | 0.00 | 0.24 | 0.24 | 85 | 1014.0 |
| 20260904194003 | 64 | 270 | 4.0 | 9.0 | 0.00 | 0.24 | 0.24 | 85 | 1014.0 |
| 20260904193503 | 64 | 272 | 4.0 | 8.0 | 0.00 | 0.24 | 0.24 | 84 | 1014.0 |
| 20260904193003 | 64 | 273 | 4.0 | 12.0 | 0.00 | 0.24 | 0.24 | 84 | 1013.9 |
| 20260904192503 | 64 | 273 | 4.0 | 12.0 | 0.00 | 0.24 | 0.24 | 84 | 1013.9 |
| 20260904192003 | 64 | 278 | 5.0 | 14.0 | 0.00 | 0.24 | 0.24 | 84 | 1013.8 |
| 20260904191503 | 64 | 276 | 6.0 | 14.0 | 0.00 | 0.24 | 0.24 | 84 | 1013.8 |
| 20260904191003 | 64 | 273 | 5.0 | 11.0 | 0.00 | 0.24 | 0.24 | 84 | 1013.5 |
| 20260904190717 | 64 | 277 | 5.0 | 11.0 | 0.00 | 0.24 | 0.24 | 84 | 1013.6 |
| 20260904190003 | 64 | 280 | 5.0 | 13.0 | 0.00 | 0.24 | 0.24 | 83 | 1013.4 |
| 20260904185717 | 64 | 277 | 4.0 | 13.0 | 0.00 | 0.24 | 0.24 | 84 | 1013.3 |
| 20260904185216 | 64 | 283 | 5.0 | 13.0 | 0.00 | 0.24 | 0.24 | 84 | 1013.4 |
| 20260904184503 | 64 | 288 | 5.0 | 13.0 | 0.00 | 0.24 | 0.24 | 84 | 1013.3 |
| 20260904184003 | 64 | 282 | 6.0 | 14.0 | 0.00 | 0.24 | 0.24 | 84 | 1013.3 |
| 20260904183503 | 64 | 273 | 7.0 | 14.0 | 0.00 | 0.24 | 0.24 | 84 | 1013.2 |
| 20260904183218 | 64 | 264 | 7.0 | 14.0 | 0.00 | 0.24 | 0.24 | 84 | 1013.2 |
| 20260904182503 | 64 | 264 | 5.0 | 13.0 | 0.00 | 0.24 | 0.24 | 83 | 1013.0 |
| 20260904182003 | 64 | 267 | 5.0 | 13.0 | 0.00 | 0.24 | 0.24 | 84 | 1012.9 |
| 20260904181503 | 64 | 267 | 5.0 | 13.0 | 0.00 | 0.24 | 0.24 | 84 | 1012.9 |
| 20260904181218 | 65 | 267 | 5.0 | 10.0 | 0.00 | 0.24 | 0.24 | 84 | 1012.9 |
| 20260904180503 | 65 | 273 | 5.0 | 11.0 | 0.00 | 0.24 | 0.24 | 84 | 1012.7 |
| 20260904180003 | 65 | 270 | 6.0 | 13.0 | 0.00 | 0.24 | 0.24 | 83 | 1012.6 |
| 20260904175503 | 65 | 271 | 7.0 | 16.0 | 0.00 | 0.24 | 0.24 | 83 | 1012.6 |
| 20260904175003 | 65 | 274 | 7.0 | 16.0 | 0.00 | 0.24 | 0.24 | 83 | 1012.6 |
| 20260904174503 | 65 | 270 | 6.0 | 14.0 | 0.00 | 0.24 | 0.24 | 84 | 1012.3 |
| 20260904174003 | 65 | 261 | 5.0 | 11.0 | 0.00 | 0.24 | 0.24 | 84 | 1012.4 |
| 20260904173717 | 65 | 264 | 6.0 | 12.0 | 0.00 | 0.24 | 0.24 | 84 | 1012.2 |
| 20260904173218 | 65 | 266 | 5.0 | 12.0 | 0.00 | 0.24 | 0.24 | 85 | 1012.4 |
| 20260904172503 | 65 | 262 | 5.0 | 10.0 | 0.00 | 0.24 | 0.24 | 85 | 1012.4 |
| 20260904172003 | 65 | 260 | 5.0 | 12.0 | 0.00 | 0.24 | 0.24 | 85 | 1012.3 |
| 20260904171503 | 65 | 259 | 4.0 | 12.0 | 0.00 | 0.24 | 0.24 | 85 | 1012.2 |
| 20260904171003 | 65 | 268 | 5.0 | 14.0 | 0.00 | 0.24 | 0.24 | 85 | 1012.1 |
| 20260904170503 | 65 | 273 | 5.0 | 14.0 | 0.00 | 0.24 | 0.24 | 85 | 1011.9 |
| 20260904170003 | 66 | 271 | 4.0 | 13.0 | 0.00 | 0.24 | 0.24 | 85 | 1011.9 |
| 20260904165503 | 66 | 263 | 4.0 | 13.0 | 0.00 | 0.24 | 0.24 | 85 | 1012.0 |
| 20260904165218 | 66 | 274 | 5.0 | 13.0 | 0.00 | 0.24 | 0.24 | 85 | 1011.9 |
| 20260904164503 | 66 | 280 | 7.0 | 19.0 | 0.00 | 0.24 | 0.24 | 85 | 1012.0 |
| 20260904164003 | 66 | 269 | 7.0 | 19.0 | 0.00 | 0.24 | 0.24 | 85 | 1012.2 |
| 20260904163503 | 66 | 264 | 6.0 | 12.0 | 0.00 | 0.24 | 0.24 | 86 | 1012.0 |
| 20260904163217 | 66 | 270 | 6.0 | 12.0 | 0.00 | 0.24 | 0.24 | 85 | 1011.9 |
| 20260904162503 | 66 | 277 | 8.0 | 17.0 | 0.00 | 0.24 | 0.24 | 86 | 1011.5 |
| 20260904162003 | 66 | 269 | 7.0 | 17.0 | 0.00 | 0.24 | 0.24 | 86 | 1011.6 |
| 20260904161503 | 66 | 263 | 6.0 | 14.0 | 0.00 | 0.24 | 0.24 | 87 | 1011.6 |
| 20260904161217 | 66 | 260 | 5.0 | 14.0 | 0.00 | 0.24 | 0.24 | 88 | 1011.5 |
| 20260904160716 | 66 | 263 | 6.0 | 13.0 | 0.00 | 0.24 | 0.24 | 88 | 1011.4 |
| 20260904160003 | 66 | 271 | 6.0 | 13.0 | 0.00 | 0.24 | 0.24 | 88 | 1011.3 |
| 20260904155503 | 66 | 275 | 6.0 | 14.0 | 0.00 | 0.24 | 0.24 | 89 | 1011.3 |
| 20260904155003 | 66 | 272 | 6.0 | 14.0 | 0.00 | 0.24 | 0.24 | 89 | 1011.5 |
| 20260904154503 | 66 | 264 | 6.0 | 13.0 | 0.00 | 0.24 | 0.24 | 89 | 1011.4 |
| 20260904154003 | 66 | 267 | 7.0 | 19.0 | 0.00 | 0.24 | 0.24 | 89 | 1011.4 |
| 20260904153503 | 66 | 276 | 7.0 | 19.0 | 0.00 | 0.24 | 0.24 | 90 | 1011.4 |
| 20260904153003 | 66 | 278 | 7.0 | 18.0 | 0.00 | 0.24 | 0.24 | 90 | 1011.4 |
| 20260904152503 | 66 | 274 | 7.0 | 16.0 | 0.00 | 0.24 | 0.24 | 91 | 1011.6 |
| 20260904152003 | 66 | 265 | 6.0 | 13.0 | 0.00 | 0.24 | 0.24 | 91 | 1011.4 |
| 20260904151503 | 66 | 265 | 6.0 | 13.0 | 0.00 | 0.24 | 0.24 | 92 | 1011.2 |
| 20260904151003 | 65 | 271 | 7.0 | 18.0 | 0.01 | 0.24 | 0.24 | 92 | 1011.2 |
| 20260904150718 | 65 | 271 | 7.0 | 18.0 | 0.01 | 0.24 | 0.24 | 92 | 1011.2 |
| 20260904150003 | 65 | 274 | 6.0 | 13.0 | 0.01 | 0.24 | 0.24 | 92 | 1011.2 |
| 20260904145503 | 65 | 274 | 6.0 | 13.0 | 0.01 | 0.24 | 0.24 | 93 | 1011.2 |
| 20260904145003 | 65 | 275 | 7.0 | 20.0 | 0.01 | 0.24 | 0.24 | 93 | 1011.2 |
| 20260904144503 | 64 | 272 | 9.0 | 20.0 | 0.01 | 0.24 | 0.24 | 93 | 1011.0 |
| 20260904144003 | 64 | 271 | 9.0 | 18.0 | 0.02 | 0.24 | 0.24 | 93 | 1011.1 |
| 20260904143503 | 64 | 271 | 8.0 | 18.0 | 0.02 | 0.24 | 0.24 | 94 | 1011.0 |
| 20260904143003 | 64 | 264 | 7.0 | 18.0 | 0.02 | 0.24 | 0.24 | 95 | 1011.0 |
| 20260904142505 | 64 | 259 | 7.0 | 15.0 | 0.04 | 0.24 | 0.24 | 96 | 1010.8 |
| 20260904142003 | 64 | 254 | 7.0 | 15.0 | 0.04 | 0.24 | 0.24 | 96 | 1010.6 |
| 20260904141503 | 65 | 246 | 6.0 | 14.0 | 0.06 | 0.24 | 0.24 | 96 | 1010.4 |
| 20260904141003 | 65 | 246 | 6.0 | 14.0 | 0.05 | 0.24 | 0.24 | 96 | 1010.6 |
| 20260904140503 | 64 | 243 | 5.0 | 14.0 | 0.05 | 0.24 | 0.24 | 96 | 1010.5 |
| 20260904140216 | 64 | 244 | 4.0 | 14.0 | 0.06 | 0.24 | 0.24 | 96 | 1010.3 |
| 20260904135503 | 64 | 260 | 4.0 | 11.0 | 0.06 | 0.24 | 0.24 | 96 | 1010.1 |
| 20260904135003 | 64 | 266 | 5.0 | 13.0 | 0.06 | 0.24 | 0.24 | 96 | 1010.1 |
| 20260904134503 | 64 | 263 | 5.0 | 13.0 | 0.06 | 0.24 | 0.24 | 96 | 1010.2 |
| 20260904134003 | 64 | 253 | 5.0 | 14.0 | 0.06 | 0.23 | 0.23 | 96 | 1010.4 |
| 20260904133503 | 64 | 244 | 7.0 | 14.0 | 0.07 | 0.23 | 0.23 | 96 | 1010.1 |
| 20260904133003 | 64 | 241 | 7.0 | 14.0 | 0.08 | 0.22 | 0.22 | 96 | 1010.4 |
| 20260904132503 | 64 | 244 | 5.0 | 14.0 | 0.07 | 0.20 | 0.20 | 96 | 1010.3 |
| 20260904132003 | 64 | 248 | 5.0 | 10.0 | 0.09 | 0.20 | 0.20 | 96 | 1010.2 |
| 20260904131717 | 64 | 246 | 5.0 | 11.0 | 0.08 | 0.20 | 0.20 | 96 | 1010.2 |
| 20260904131218 | 64 | 246 | 6.0 | 13.0 | 0.08 | 0.19 | 0.19 | 96 | 1010.2 |
| 20260904130503 | 65 | 243 | 6.0 | 13.0 | 0.08 | 0.19 | 0.19 | 96 | 1010.1 |
| 20260904130003 | 65 | 242 | 4.0 | 13.0 | 0.07 | 0.18 | 0.18 | 96 | 1010.0 |
| 20260904125503 | 65 | 252 | 3.0 | 10.0 | 0.07 | 0.18 | 0.18 | 96 | 1009.9 |
| 20260904125003 | 65 | 263 | 4.0 | 10.0 | 0.06 | 0.17 | 0.17 | 96 | 1010.0 |
| 20260904124503 | 65 | 258 | 5.0 | 11.0 | 0.06 | 0.17 | 0.17 | 95 | 1010.0 |
| 20260904124003 | 65 | 262 | 5.0 | 15.0 | 0.06 | 0.17 | 0.17 | 95 | 1010.1 |
| 20260904123503 | 65 | 271 | 5.0 | 15.0 | 0.05 | 0.16 | 0.16 | 95 | 1010.0 |
| 20260904123003 | 65 | 261 | 4.0 | 10.0 | 0.03 | 0.14 | 0.14 | 95 | 1010.0 |
| 20260904122503 | 65 | 273 | 4.0 | 10.0 | 0.03 | 0.13 | 0.13 | 95 | 1009.9 |
| 20260904122003 | 65 | 276 | 4.0 | 10.0 | 0.02 | 0.12 | 0.12 | 95 | 1009.9 |
| 20260904121503 | 65 | 262 | 5.0 | 10.0 | 0.03 | 0.12 | 0.12 | 95 | 1009.8 |
| 20260904121003 | 65 | 261 | 4.0 | 10.0 | 0.03 | 0.11 | 0.11 | 94 | 1009.8 |
| 20260904120503 | 65 | 276 | 4.0 | 9.0 | 0.03 | 0.11 | 0.11 | 94 | 1009.8 |
| 20260904120218 | 65 | 274 | 4.0 | 12.0 | 0.03 | 0.11 | 0.11 | 94 | 1009.9 |
| 20260904115503 | 65 | 270 | 5.0 | 12.0 | 0.03 | 0.11 | 0.11 | 94 | 1009.8 |
| 20260904115003 | 65 | 277 | 5.0 | 11.0 | 0.09 | 0.11 | 0.11 | 94 | 1009.8 |
| 20260904114503 | 65 | 286 | 5.0 | 13.0 | 0.09 | 0.11 | 0.11 | 94 | 1009.7 |
| 20260904114003 | 65 | 287 | 6.0 | 13.0 | 0.09 | 0.11 | 0.11 | 94 | 1009.5 |
| 20260904113503 | 66 | 295 | 5.0 | 13.0 | 0.09 | 0.11 | 0.11 | 95 | 1009.6 |
| 20260904113003 | 65 | 293 | 5.0 | 10.0 | 0.09 | 0.11 | 0.11 | 94 | 1009.7 |
| 20260904112503 | 65 | 276 | 6.0 | 11.0 | 0.09 | 0.10 | 0.10 | 94 | 1009.7 |
| 20260904112003 | 65 | 266 | 6.0 | 12.0 | 0.08 | 0.09 | 0.09 | 93 | 1010.0 |
| 20260904111503 | 65 | 267 | 6.0 | 13.0 | 0.07 | 0.09 | 0.09 | 92 | 1009.9 |
| 20260904111003 | 65 | 260 | 6.0 | 13.0 | 0.06 | 0.08 | 0.08 | 92 | 1009.7 |
| 20260904110716 | 65 | 260 | 6.0 | 16.0 | 0.06 | 0.08 | 0.08 | 91 | 1009.5 |
| 20260904110218 | 66 | 269 | 7.0 | 16.0 | 0.06 | 0.08 | 0.08 | 90 | 1009.6 |
| 20260904105503 | 68 | 273 | 7.0 | 19.0 | 0.06 | 0.08 | 0.08 | 87 | 1010.0 |
| 20260904105217 | 70 | 254 | 8.0 | 19.0 | 0.05 | 0.06 | 0.06 | 89 | 1010.1 |
| 20260904104503 | 71 | 212 | 7.0 | 17.0 | 0.00 | 0.02 | 0.02 | 90 | 1008.8 |
| 20260904104217 | 71 | 213 | 7.0 | 17.0 | 0.00 | 0.02 | 0.02 | 90 | 1008.9 |
| 20260904103503 | 71 | 227 | 8.0 | 20.0 | 0.00 | 0.02 | 0.02 | 89 | 1008.9 |
| 20260904103003 | 71 | 232 | 9.0 | 17.0 | 0.00 | 0.02 | 0.02 | 89 | 1008.9 |
| 20260904102504 | 71 | 226 | 8.0 | 17.0 | 0.00 | 0.02 | 0.02 | 90 | 1009.0 |
| 20260904102217 | 71 | 226 | 8.0 | 15.0 | 0.00 | 0.02 | 0.02 | 90 | 1008.9 |
| 20260904101503 | 70 | 214 | 9.0 | 23.0 | 0.00 | 0.02 | 0.02 | 92 | 1009.1 |
| 20260904101217 | 70 | 210 | 9.0 | 23.0 | 0.00 | 0.02 | 0.02 | 92 | 1008.9 |
| 20260904100718 | 70 | 217 | 7.0 | 23.0 | 0.00 | 0.02 | 0.02 | 94 | 1009.0 |
| 20260904100003 | 70 | 212 | 6.0 | 15.0 | 0.00 | 0.02 | 0.02 | 95 | 1009.1 |
| 20260904095505 | 69 | 202 | 5.0 | 13.0 | 0.00 | 0.02 | 0.02 | 95 | 1009.1 |
| 20260904095003 | 69 | 203 | 6.0 | 15.0 | 0.00 | 0.02 | 0.02 | 94 | 1009.2 |
| 20260904094503 | 69 | 199 | 6.0 | 15.0 | 0.01 | 0.02 | 0.02 | 94 | 1009.2 |
| 20260904094003 | 68 | 207 | 6.0 | 18.0 | 0.01 | 0.02 | 0.02 | 94 | 1009.4 |
| 20260904093503 | 68 | 225 | 6.0 | 18.0 | 0.02 | 0.02 | 0.02 | 94 | 1009.5 |
| 20260904093217 | 68 | 223 | 6.0 | 16.0 | 0.02 | 0.02 | 0.02 | 94 | 1009.6 |
| 20260904092503 | 68 | 226 | 5.0 | 16.0 | 0.02 | 0.02 | 0.02 | 94 | 1009.8 |
| 20260904092217 | 68 | 230 | 6.0 | 16.0 | 0.02 | 0.02 | 0.02 | 94 | 1009.7 |
| 20260904091503 | 68 | 223 | 7.0 | 17.0 | 0.02 | 0.02 | 0.02 | 93 | 1009.4 |
| 20260904091003 | 68 | 217 | 7.0 | 17.0 | 0.02 | 0.02 | 0.02 | 92 | 1009.4 |
| 20260904090718 | 69 | 216 | 6.0 | 17.0 | 0.02 | 0.02 | 0.02 | 92 | 1009.6 |
| 20260904090003 | 69 | 221 | 6.0 | 18.0 | 0.02 | 0.02 | 0.02 | 91 | 1009.5 |
| 20260904085503 | 69 | 223 | 6.0 | 18.0 | 0.02 | 0.02 | 0.02 | 91 | 1009.5 |
| 20260904085003 | 69 | 225 | 5.0 | 15.0 | 0.02 | 0.02 | 0.02 | 91 | 1009.5 |
| 20260904084503 | 69 | 222 | 6.0 | 15.0 | 0.01 | 0.01 | 0.01 | 90 | 1009.4 |
| 20260904084003 | 69 | 213 | 6.0 | 15.0 | 0.01 | 0.01 | 0.01 | 89 | 1009.5 |
| 20260904083503 | 70 | 216 | 6.0 | 12.0 | 0.00 | 0.00 | 0.00 | 88 | 1009.3 |
| 20260904083216 | 70 | 222 | 6.0 | 13.0 | 0.00 | 0.00 | 0.00 | 88 | 1009.5 |
| 20260904082503 | 70 | 231 | 7.0 | 17.0 | 0.00 | 0.00 | 0.00 | 87 | 1009.5 |
| 20260904082003 | 70 | 223 | 5.0 | 17.0 | 0.00 | 0.00 | 0.00 | 86 | 1009.5 |
| 20260904081503 | 70 | 209 | 5.0 | 13.0 | 0.00 | 0.00 | 0.00 | 86 | 1009.5 |
| 20260904081003 | 70 | 218 | 6.0 | 14.0 | 0.00 | 0.00 | 0.00 | 85 | 1009.5 |
| 20260904080503 | 70 | 216 | 7.0 | 15.0 | 0.00 | 0.00 | 0.00 | 84 | 1009.7 |
| 20260904080003 | 71 | 206 | 7.0 | 15.0 | 0.00 | 0.00 | 0.00 | 84 | 1009.6 |
| 20260904075503 | 71 | 196 | 7.0 | 16.0 | 0.00 | 0.00 | 0.00 | 84 | 1009.6 |
| 20260904075218 | 71 | 197 | 7.0 | 16.0 | 0.00 | 0.00 | 0.00 | 83 | 1009.5 |
| 20260904074503 | 71 | 205 | 6.0 | 14.0 | 0.00 | 0.00 | 0.00 | 83 | 1009.5 |
| 20260904074003 | 71 | 214 | 5.0 | 13.0 | 0.00 | 0.00 | 0.00 | 83 | 1009.7 |
| 20260904073503 | 71 | 221 | 5.0 | 16.0 | 0.00 | 0.00 | 0.00 | 84 | 1009.8 |
| 20260904073218 | 71 | 227 | 6.0 | 16.0 | 0.00 | 0.00 | 0.00 | 84 | 1009.8 |
| 20260904072503 | 70 | 209 | 6.0 | 14.0 | 0.00 | 0.00 | 0.00 | 84 | 1010.0 |
| 20260904072003 | 70 | 195 | 6.0 | 18.0 | 0.00 | 0.00 | 0.00 | 84 | 1010.0 |
| 20260904071503 | 70 | 199 | 6.0 | 18.0 | 0.00 | 0.00 | 0.00 | 84 | 1009.9 |
| 20260904071003 | 70 | 198 | 6.0 | 18.0 | 0.00 | 0.00 | 0.00 | 84 | 1010.1 |
| 20260904070503 | 70 | 197 | 6.0 | 17.0 | 0.00 | 0.00 | 0.00 | 84 | 1010.0 |
| 20260904070003 | 70 | 195 | 6.0 | 15.0 | 0.00 | 0.00 | 0.00 | 84 | 1010.1 |
| 20260904065503 | 70 | 202 | 5.0 | 11.0 | 0.00 | 0.00 | 0.00 | 84 | 1010.1 |
| 20260904065218 | 70 | 193 | 4.0 | 12.0 | 0.00 | 0.00 | 0.00 | 84 | 1010.2 |
| 20260904064503 | 70 | 208 | 6.0 | 15.0 | 0.00 | 0.00 | 0.00 | 84 | 1010.2 |
| 20260904064003 | 70 | 217 | 6.0 | 13.0 | 0.00 | 0.00 | 0.00 | 84 | 1010.5 |
| 20260904063503 | 70 | 225 | 5.0 | 13.0 | 0.00 | 0.00 | 0.00 | 85 | 1010.4 |
| 20260904063218 | 70 | 230 | 4.0 | 12.0 | 0.00 | 0.00 | 0.00 | 85 | 1010.4 |
| 20260904062503 | 70 | 240 | 5.0 | 13.0 | 0.00 | 0.00 | 0.00 | 84 | 1010.5 |
| 20260904062003 | 70 | 230 | 6.0 | 13.0 | 0.00 | 0.00 | 0.00 | 84 | 1010.6 |
| 20260904061717 | 70 | 230 | 6.0 | 13.0 | 0.00 | 0.00 | 0.00 | 84 | 1010.7 |
| 20260904061003 | 70 | 235 | 7.0 | 14.0 | 0.00 | 0.00 | 0.00 | 84 | 1010.7 |
| 20260904060503 | 70 | 234 | 8.0 | 20.0 | 0.00 | 0.00 | 0.00 | 84 | 1010.7 |
| 20260904060003 | 69 | 236 | 8.0 | 20.0 | 0.00 | 0.00 | 0.00 | 85 | 1010.7 |
| 20260904055503 | 69 | 234 | 8.0 | 20.0 | 0.00 | 0.00 | 0.00 | 85 | 1010.6 |
| 20260904055217 | 69 | 231 | 7.0 | 19.0 | 0.00 | 0.00 | 0.00 | 85 | 1010.7 |
| 20260904054503 | 69 | 224 | 5.0 | 16.0 | 0.00 | 0.00 | 0.00 | 85 | 1010.9 |
| 20260904054003 | 69 | 220 | 5.0 | 16.0 | 0.00 | 0.00 | 0.00 | 86 | 1010.9 |
| 20260904053503 | 69 | 214 | 5.0 | 12.0 | 0.00 | 0.00 | 0.00 | 86 | 1011.0 |
| 20260904053003 | 69 | 216 | 6.0 | 14.0 | 0.00 | 0.00 | 0.00 | 86 | 1011.1 |
| 20260904052503 | 69 | 216 | 6.0 | 16.0 | 0.00 | 0.00 | 0.00 | 86 | 1011.2 |
| 20260904052217 | 69 | 213 | 6.0 | 16.0 | 0.00 | 0.00 | 0.00 | 86 | 1011.2 |
| 20260904051503 | 69 | 214 | 6.0 | 14.0 | 0.00 | 0.00 | 0.00 | 87 | 1011.4 |
| 20260904051003 | 69 | 216 | 6.0 | 14.0 | 0.00 | 0.00 | 0.00 | 87 | 1011.5 |
| 20260904050503 | 68 | 224 | 6.0 | 14.0 | 0.00 | 0.00 | 0.00 | 88 | 1011.5 |
| 20260904050003 | 68 | 224 | 5.0 | 13.0 | 0.00 | 0.00 | 0.00 | 88 | 1011.6 |
| 20260904045503 | 68 | 222 | 5.0 | 13.0 | 0.00 | 0.00 | 0.00 | 89 | 1011.6 |
| 20260904045217 | 68 | 215 | 5.0 | 11.0 | 0.00 | 0.00 | 0.00 | 89 | 1011.5 |
| 20260904044503 | 68 | 204 | 5.0 | 16.0 | 0.00 | 0.00 | 0.00 | 90 | 1011.6 |
| 20260904044003 | 68 | 215 | 5.0 | 16.0 | 0.00 | 0.00 | 0.00 | 90 | 1011.7 |
| 20260904043503 | 68 | 220 | 5.0 | 13.0 | 0.00 | 0.00 | 0.00 | 90 | 1011.7 |
| 20260904043003 | 68 | 214 | 5.0 | 14.0 | 0.00 | 0.00 | 0.00 | 91 | 1011.7 |
| 20260904042503 | 68 | 215 | 5.0 | 14.0 | 0.00 | 0.00 | 0.00 | 91 | 1011.7 |
| 20260904042217 | 68 | 217 | 5.0 | 12.0 | 0.00 | 0.00 | 0.00 | 91 | 1011.7 |
| 20260904041503 | 68 | 209 | 4.0 | 9.0 | 0.00 | 0.00 | 0.00 | 91 | 1011.8 |
| 20260904041217 | 68 | 197 | 4.0 | 9.0 | 0.00 | 0.00 | 0.00 | 91 | 1011.8 |
| 20260904040503 | 68 | 197 | 5.0 | 13.0 | 0.00 | 0.00 | 0.00 | 92 | 1011.9 |
| 20260904040003 | 68 | 196 | 5.0 | 13.0 | 0.00 | 0.00 | 0.00 | 92 | 1012.0 |
| 20260904035718 | 68 | 196 | 5.0 | 11.0 | 0.00 | 0.00 | 0.00 | 92 | 1012.0 |
| 20260904035003 | 68 | 217 | 4.0 | 11.0 | 0.00 | 0.00 | 0.00 | 91 | 1012.0 |
| 20260904034503 | 68 | 218 | 3.0 | 10.0 | 0.00 | 0.00 | 0.00 | 92 | 1012.2 |
| 20260904034003 | 68 | 219 | 3.0 | 10.0 | 0.00 | 0.00 | 0.00 | 92 | 1012.2 |
| 20260904033718 | 68 | 215 | 3.0 | 9.0 | 0.00 | 0.00 | 0.00 | 92 | 1012.2 |
| 20260904033003 | 68 | 219 | 4.0 | 10.0 | 0.00 | 0.00 | 0.00 | 92 | 1012.3 |
| 20260904032503 | 68 | 227 | 4.0 | 10.0 | 0.00 | 0.00 | 0.00 | 92 | 1012.2 |
| 20260904032216 | 68 | 224 | 4.0 | 11.0 | 0.00 | 0.00 | 0.00 | 92 | 1012.2 |
| 20260904031503 | 68 | 210 | 4.0 | 11.0 | 0.00 | 0.00 | 0.00 | 92 | 1012.4 |
| 20260904031003 | 68 | 216 | 4.0 | 11.0 | 0.00 | 0.00 | 0.00 | 92 | 1012.4 |
| 20260904030503 | 68 | 210 | 4.0 | 11.0 | 0.00 | 0.00 | 0.00 | 92 | 1012.5 |
| 20260904030003 | 68 | 215 | 4.0 | 12.0 | 0.00 | 0.00 | 0.00 | 92 | 1012.6 |
| 20260904025503 | 68 | 221 | 4.0 | 12.0 | 0.00 | 0.00 | 0.00 | 92 | 1012.7 |
| 20260904025003 | 68 | 206 | 4.0 | 10.0 | 0.00 | 0.00 | 0.00 | 92 | 1012.7 |
| 20260904024503 | 68 | 199 | 3.0 | 9.0 | 0.00 | 0.00 | 0.00 | 92 | 1012.7 |
| 20260904024003 | 68 | 202 | 2.0 | 8.0 | 0.00 | 0.00 | 0.00 | 92 | 1012.7 |
| 20260904023503 | 68 | 204 | 3.0 | 9.0 | 0.00 | 0.00 | 0.00 | 92 | 1013.0 |
| 20260904023003 | 68 | 204 | 3.0 | 9.0 | 0.00 | 0.00 | 0.00 | 92 | 1012.9 |
| 20260904022503 | 68 | 206 | 2.0 | 8.0 | 0.00 | 0.00 | 0.00 | 92 | 1013.0 |
| 20260904022003 | 68 | 213 | 3.0 | 13.0 | 0.00 | 0.00 | 0.00 | 92 | 1013.0 |
| 20260904021503 | 68 | 212 | 4.0 | 13.0 | 0.00 | 0.00 | 0.00 | 92 | 1013.1 |
| 20260904021003 | 67 | 211 | 4.0 | 10.0 | 0.00 | 0.00 | 0.00 | 92 | 1013.1 |
| 20260904020503 | 67 | 207 | 4.0 | 10.0 | 0.00 | 0.00 | 0.00 | 92 | 1013.1 |
| 20260904020003 | 67 | 208 | 4.0 | 10.0 | 0.00 | 0.00 | 0.00 | 92 | 1013.2 |
| 20260904015717 | 67 | 206 | 3.0 | 10.0 | 0.00 | 0.00 | 0.00 | 93 | 1013.4 |
| 20260904015003 | 67 | 202 | 4.0 | 10.0 | 0.00 | 0.00 | 0.00 | 93 | 1013.4 |
| 20260904014503 | 67 | 195 | 4.0 | 10.0 | 0.00 | 0.00 | 0.00 | 93 | 1013.4 |
| 20260904014003 | 67 | 193 | 4.0 | 10.0 | 0.00 | 0.00 | 0.00 | 93 | 1013.6 |
| 20260904013503 | 67 | 190 | 3.0 | 8.0 | 0.00 | 0.00 | 0.00 | 93 | 1013.6 |
| 20260904013003 | 67 | 188 | 3.0 | 8.0 | 0.00 | 0.00 | 0.00 | 93 | 1013.7 |
| 20260904012503 | 67 | 174 | 3.0 | 8.0 | 0.00 | 0.00 | 0.00 | 93 | 1013.6 |
| 20260904012003 | 67 | 172 | 3.0 | 8.0 | 0.00 | 0.00 | 0.00 | 93 | 1013.7 |
| 20260904011503 | 67 | 186 | 3.0 | 7.0 | 0.00 | 0.00 | 0.00 | 93 | 1013.7 |
| 20260904011218 | 67 | 191 | 3.0 | 7.0 | 0.00 | 0.00 | 0.00 | 93 | 1013.8 |
| 20260904010717 | 67 | 177 | 2.0 | 6.0 | 0.00 | 0.00 | 0.00 | 93 | 1013.9 |
| 20260904010003 | 67 | 189 | 3.0 | 7.0 | 0.00 | 0.00 | 0.00 | 92 | 1014.0 |
| 20260904005503 | 67 | 174 | 3.0 | 12.0 | 0.00 | 0.00 | 0.00 | 93 | 1014.0 |
| 20260904005003 | 67 | 173 | 3.0 | 12.0 | 0.00 | 0.00 | 0.00 | 93 | 1014.0 |